Tracking 28794 objects as of 19-Apr-2024
HD Live streaming from Space Station
objects crossing your sky now

COSMOS 1375 DEB

Track COSMOS 1375 DEB now!
10-day predictions


NORAD ID: 16207
Int'l Code: 1982-055J
Perigee: 987.4 km
Apogee: 1,115.4 km
Inclination: 65.8 °
Period: 106.1 minutes
Semi major axis: 7422 km
RCS: 0.119 m2 (medium)
Launch date: June 6, 1982
Source: Commonwealth of Independent States (former USSR) (CIS)
Launch site: PLESETSK MISSILE AND SPACE COMPLEX (PKMTR)

Note: This is SATELLITE DEBRIS
Your satellite tracking list
Your tracking list is empty




NASA's NSSDC Master Catalog

Two Line Element Set (TLE):
1 16207U 82055J   24110.41558546  .00000003  00000-0  10925-3 0  9995
2 16207  65.8329 125.9489 0086213 214.8267 253.8560 13.57645382907918
Source of the keplerian elements: AFSPC